COSMOS 1275 DEB, 17617

Orbit data source: Space-Track

COSMOS 1275 DEB, 17617 is space debris in LEO originally from a launch on Thu, 04 Jun 1981 UTC launched from the Plesetsk Missile And Space Complex (PKMTR). Debris objects in space refer to the collection of defunct objects orbiting the Earth. Examples of debris include non-operational satellites, rocket bodies, and fragments generated from explosions, collisions, or faulty payload assembly.

Loading next visibility...
Identifier
17617, 1981-053KL
Orbit
LEO
Country
Flag of CISCIS
Related business
Manufacturer
Unknown
Mission
Spacecraft
Bus & Motor
Unknown
Mass
Unknown
Launch date (UTC)
1981-06-04 (45 years ago)
Launch vehicle
Unknown
Launch site
Plesetsk Missile And Space Complex (PKMTR)
Object type
Payload
Rocket body
Debris
Shape & HBR
Unknown shape, 0.1 m
Radar Cross Section
Medium (>0.1 m² and <1 m²)

Expand to show TLE details & history
Last TLE update: 2 days ago

TLE from 2 days ago
0 COSMOS 1275 DEB
1 17617U 81053KL  26235.02400016  .00000443  00000-0  45726-3 0  9998
2 17617  82.8550  71.5530 0175362 330.6416 183.0095 13.67739942 51429
Epoch: 2026-08-23T00:34Z
TLE epoch observation values (Epoch: 2026-08-23T00:34:33.613Z)
Latitude
26.26312°
Longitude
-91.94124°
Altitude
1,140.245 km
Speed
7.221 km/s
True Right ascension
16h 32m 05s
True Declination
26° 08' 02"
Sunlit
Object was in daylight at epoch
Visualization orbit readout
Latitude
Unknown
Longitude
Unknown
Altitude
Unknown
Speed
Unknown
Apparent Right ascension
Unknown
Apparent Declination
Unknown
Sunlit
N/A
Visualization observer readout
Local Sidereal Time
04:06:09
Azimuth
Unknown
Elevation
Unknown
Doppler factor
Unknown
Orbital elements
Apogee altitude
1,134.327 km
Perigee altitude
875.387 km
Semi-major axis
7,382.994 km
Eccentricity
0.01754
Inclination
82.855°
RAAN
71.553°
Arg. of periapsis
330.6416°
True anomaly
182.90626°
Mean anomaly
183.0095°
Eccentric anomaly
182.95766°
Mean motion
3.42133 °/min
Orbital period
105.22 mins
BSTAR
0.00045726
Loading maneuver chart data...
Computing Atmospheric mass density...

Documentation

Showing up to 5 results
|